[[{"header":{"parameterUnit":"m.s-1","parameterCategory":1,"la1":30.2991,"la2":30.254,"lo1":-89.0895,"lo2":-89.0444,"dy":0.0017,"dx":0.0017,"nx":28,"ny":28,"refTime":"2025-06-17T03:00:00:Z","depth":0,"parameterNumber":2,"parameterNumberName":"U-component_of_WINDS"},"data":[0,0,0,0,0,0,0,0,0,0,0,0,0,0,0,0,0,0,0,0,0,0,0,0,0,0,0,0,0,0,0,0,0,0,0,0,0,0,0,0,0,0,0,0,0,0,0,0,0,0,0,0,0,0,0,0,0,0,0.5534,0.5534,0,0.5515,0.5515,0.5515,0.548,0.5479,0.5479,0.5478,0.5458,0.5458,0.5459,0,0,0,0,0,0,0,0,0,0,0,0,0,0.5539,0.5539,0.5534,0.5534,0.5534,0.5515,0.5515,0.5515,0.548,0.5479,0.5478,0.5478,0.5458,0.5458,0.5459,0,0,0,0,0,0,0,0,0,0,0,0,0,0.553,0.5539,0.5534,0.5514,0.5512,0.5515,0.5515,0.5515,0.548,0.5479,0.5478,0.5477,0.5458,0.5458,0.5459,0.548,0,0,0.5459,0.5459,0,0,0,0,0,0,0,0,0.5531,0.553,0.5517,0.5516,0.5513,0.5499,0.551,0.5503,0.548,0.5492,0.5478,0.5477,0.5473,0.5472,0.547,0.5479,0.5478,0.5459,0.5459,0.5459,0.5459,0,0,0,0,0,0,0,0.5531,0.5531,0.5527,0.5517,0.5515,0.5506,0.5503,0.5508,0.5488,0.5491,0.5489,0.5487,0.5471,0.547,0.547,0.5478,0.5459,0.5459,0.5459,0.5459,0.5501,0.5502,0,0,0,0,0,0,0.5535,0.5531,0.5527,0.5526,0.552,0.5506,0.5504,0.5505,0.5488,0.5485,0.5488,0.5485,0.547,0.5469,0.5469,0.5491,0.5459,0.5459,0.546,0.55,0.5501,0.5502,0,0,0,0,0,0,0.5535,0.5535,0.5528,0.5528,0.5527,0.5507,0.5509,0.5505,0.5504,0.5486,0.5482,0.549,0.547,0.5469,0.5477,0.549,0.546,0.546,0.5498,0.55,0.5501,0.5536,0,0,0,0,0,0,0.5536,0.5535,0.5544,0.5529,0.5527,0.5537,0.551,0.5505,0.5504,0.5501,0.5487,0.5484,0.5469,0.5477,0.5477,0.5489,0.546,0.5497,0.5499,0.5501,0.5534,0.5539,0.5543,0,0,0,0,0,0.5536,0.5555,0.5544,0.5544,0.5537,0.5538,0.5537,0.5519,0.5505,0.5513,0.5501,0.5484,0.5489,0.5478,0.5478,0.549,0.5496,0.5499,0.5501,0.5532,0.5538,0.5543,0,0,0,0,0,0,0.5572,0.5552,0.5541,0.5555,0.5548,0.5532,0.5541,0.5526,0.5524,0.552,0.5499,0.5496,0.5507,0.55,0.5488,0.5509,0.549,0.5492,0.5513,0.5519,0.5523,0.5524,0.546,0,0,0,0,0,0.5582,0.5585,0.5567,0.5582,0.5579,0.5561,0.5561,0.5548,0.554,0.5537,0.5526,0.5519,0.5518,0.5518,0.5517,0.5533,0.5528,0.5541,0.5546,0.555,0.5552,0.5557,0.5562,0.5509,0.5509,0.5509,0,0,0.5602,0.5591,0.5595,0.5589,0.5582,0.5585,0.5559,0.5563,0.5565,0.5537,0.5544,0.5536,0.5526,0.5538,0.5543,0.5532,0.5565,0.5553,0.5556,0.5555,0.556,0.5565,0.557,0.5511,0.551,0.551,0,0,0.5639,0.5632,0.5642,0.5636,0.5626,0.5614,0.5616,0.5602,0.5595,0.5601,0.558,0.5582,0.5582,0.5575,0.5572,0.5605,0.5589,0.5606,0.5629,0.5635,0.5639,0.5643,0.5653,0.5657,0.5608,0.5608,0.5608,0,0.5665,0.5669,0.565,0.5655,0.5652,0.5627,0.5637,0.5632,0.5622,0.562,0.5609,0.5607,0.5599,0.5608,0.5616,0.5615,0.5616,0.5607,0.564,0.5644,0.5647,0.5656,0.566,0.561,0.561,0.561,0.5609,0,0.57,0.5703,0.5712,0.5703,0.5701,0.5709,0.569,0.5691,0.5678,0.5666,0.5672,0.5662,0.5657,0.5658,0.5646,0.5665,0.5658,0.5644,0.5624,0.5654,0.5662,0.5666,0.5613,0.5612,0.5611,0.5611,0,0,0.576,0.5739,0.5742,0.5737,0.5723,0.5725,0.5731,0.5726,0.5726,0.572,0.5723,0.5723,0.5709,0.5706,0.5692,0.5698,0.5722,0.5682,0.5682,0.5689,0.5741,0.575,0.5755,0.5712,0.5713,0.5713,0.5741,0,0.5793,0.5801,0.5784,0.5796,0.5798,0.5774,0.5778,0.577,0.576,0.5759,0.5747,0.5747,0.5729,0.5727,0.5731,0.5719,0.5732,0.5716,0.5714,0.5714,0.5715,0.576,0.577,0.5797,0.5744,0.5745,0.5745,0,0.5833,0.5828,0.584,0.5824,0.5824,0.5829,0.5822,0.5822,0.5812,0.5803,0.5799,0.5783,0.5786,0.5768,0.5772,0.5761,0.5759,0.5753,0.5753,0.5751,0.573,0.5757,0.5805,0.5809,0.5751,0.575,0.575,0,0.5872,0.5869,0.5875,0.5872,0.5854,0.5858,0.585,0.5839,0.5837,0.5831,0.5829,0.5824,0.582,0.5816,0.5799,0.5787,0.5804,0.5785,0.5796,0.5797,0.58,0.58,0.5847,0.5801,0.5801,0.5801,0.5801,0,0.591,0.5918,0.5893,0.5897,0.5905,0.5884,0.5893,0.5883,0.5873,0.5874,0.5854,0.5855,0.5832,0.5831,0.5817,0.5821,0.5821,0.5813,0.5809,0.5814,0.5815,0.5812,0.5809,0.5802,0.5802,0.5802,0.5802,0,0.5956,0.5939,0.5944,0.5927,0.5922,0.5929,0.5914,0.5916,0.5904,0.5905,0.5904,0.5885,0.5882,0.5864,0.5858,0.5849,0.5857,0.585,0.586,0.5857,0.5869,0.5868,0.5915,0.5919,0.5873,0.5873,0.5873,0,0.598,0.5986,0.5968,0.5967,0.5961,0.596,0.5957,0.5937,0.5935,0.5923,0.5926,0.5922,0.5917,0.5913,0.5898,0.5893,0.5884,0.5901,0.5883,0.5888,0.5883,0.5882,0.5881,0.5905,0.5905,0.5906,0.5906,0,0.6025,0.6016,0.6013,0.6006,0.6003,0.5997,0.599,0.599,0.5968,0.5967,0.5963,0.5959,0.5952,0.5947,0.5938,0.593,0.5914,0.5912,0.5914,0.5918,0.5923,0.5919,0.5869,0.5911,0.591,0.591,0.591,0.5909,0.6059,0.6062,0.605,0.6047,0.6039,0.6032,0.6033,0.6021,0.6018,0.601,0.5998,0.5996,0.5984,0.5971,0.5964,0.5962,0.5952,0.5956,0.5957,0.5957,0.5959,0.5925,0.596,0.596,0.596,0.596,0.596,0,0.6101,0.6092,0.6089,0.6079,0.6076,0.6061,0.6052,0.6051,0.6049,0.6039,0.6035,0.603,0.6025,0.6009,0.6002,0.6003,0.5995,0.6002,0.6001,0.5999,0.5969,0.5967,0.6008,0.6008,0.6008,0.6008,0.6008,0.6008,0.6123,0.6126,0.6116,0.6115,0.6106,0.6103,0.6099,0.6092,0.6085,0.608,0.6076,0.6065,0.6053,0.6045,0.6039,0.6035,0.6032,0.6041,0.6034,0.6006,0.6001,0.5997,0.5995,0.6041,0.6041,0.6064,0.6064,0.6064]},{"header":{"parameterUnit":"m.s-1","parameterCategory":1,"la1":30.2991,"la2":30.254,"lo1":-89.0895,"lo2":-89.0444,"dy":0.0017,"dx":0.0017,"nx":28,"ny":28,"refTime":"2025-06-17T03:00:00:Z","depth":0,"parameterNumber":3,"parameterNumberName":"V-component_of_WINDS"},"data":[0,0,0,0,0,0,0,0,0,0,0,0,0,0,0,0,0,0,0,0,0,0,0,0,0,0,0,0,0,0,0,0,0,0,0,0,0,0,0,0,0,0,0,0,0,0,0,0,0,0,0,0,0,0,0,0,0,0,5.1287,5.1288,0,5.1366,5.1367,5.1368,5.1308,5.1306,5.1303,5.1301,5.1376,5.1381,5.1385,0,0,0,0,0,0,0,0,0,0,0,0,0,5.1079,5.1083,5.1287,5.1288,5.1289,5.1366,5.1367,5.1368,5.1309,5.1306,5.1303,5.13,5.1375,5.138,5.1385,0,0,0,0,0,0,0,0,0,0,0,0,0,5.1165,5.1085,5.1287,5.1269,5.1268,5.1365,5.1367,5.1368,5.1309,5.1306,5.1302,5.1298,5.1373,5.138,5.1386,5.1504,0,0,5.1406,5.1409,0,0,0,0,0,0,0,0,5.116,5.1172,5.1271,5.127,5.127,5.1323,5.1321,5.1413,5.131,5.1294,5.1301,5.1296,5.1362,5.1369,5.1392,5.1507,5.151,5.1407,5.1411,5.1414,5.1416,0,0,0,0,0,0,0,5.1154,5.1169,5.1318,5.1272,5.1272,5.1255,5.1263,5.1338,5.1348,5.1295,5.1291,5.1301,5.136,5.1386,5.1393,5.1512,5.1407,5.1412,5.1417,5.1419,5.1724,5.1728,0,0,0,0,0,0,5.1151,5.1164,5.1316,5.132,5.1204,5.1262,5.1271,5.131,5.1347,5.1349,5.1304,5.1298,5.1376,5.1386,5.1396,5.1533,5.1414,5.142,5.1424,5.172,5.1725,5.1729,0,0,0,0,0,0,5.1147,5.1165,5.1312,5.1241,5.1259,5.1269,5.1314,5.1314,5.1339,5.1354,5.1355,5.1329,5.1374,5.1386,5.1477,5.1535,5.1423,5.1429,5.1715,5.1721,5.1727,5.1812,0,0,0,0,0,0,5.1141,5.1164,5.121,5.1243,5.1263,5.1395,5.1318,5.1318,5.1351,5.1343,5.1377,5.1379,5.1372,5.1467,5.1483,5.1542,5.1434,5.171,5.1718,5.1725,5.1804,5.182,5.1834,0,0,0,0,0,5.1134,5.123,5.1213,5.1231,5.1322,5.1398,5.1409,5.14,5.1356,5.1401,5.1411,5.1378,5.1527,5.1477,5.1495,5.1557,5.1706,5.1715,5.1724,5.1797,5.1817,5.1834,0,0,0,0,0,0,5.1203,5.1234,5.1215,5.1326,5.136,5.1388,5.1445,5.1422,5.1468,5.1459,5.1443,5.1452,5.1546,5.1561,5.1505,5.1671,5.1609,5.1622,5.1658,5.1677,5.1692,5.1685,5.1439,0,0,0,0,0,5.1231,5.1293,5.1316,5.1412,5.143,5.1435,5.1468,5.1458,5.1492,5.1505,5.1521,5.1554,5.1607,5.1643,5.1694,5.1806,5.1811,5.1857,5.1872,5.1884,5.1895,5.1953,5.1972,5.176,5.176,5.176,0,0,5.129,5.1315,5.1355,5.1426,5.1451,5.1513,5.1447,5.1516,5.1561,5.1515,5.1601,5.1615,5.1649,5.1751,5.1796,5.1765,5.1955,5.1896,5.1906,5.191,5.1964,5.1984,5.2002,5.1766,5.1765,5.1764,0,0,5.1428,5.1455,5.1536,5.1562,5.1602,5.1604,5.1624,5.1655,5.1662,5.1749,5.1716,5.1768,5.1861,5.1887,5.1912,5.2059,5.2029,5.2075,5.2154,5.221,5.2227,5.2241,5.2291,5.2309,5.2087,5.2087,5.2087,0,5.1496,5.159,5.158,5.1651,5.1682,5.1645,5.1725,5.1751,5.1804,5.1825,5.1791,5.1906,5.1927,5.2032,5.2068,5.2091,5.211,5.2071,5.2226,5.224,5.2254,5.2301,5.232,5.2092,5.2092,5.2091,5.2091,0,5.1669,5.1735,5.1795,5.1848,5.1886,5.1962,5.1961,5.2,5.1986,5.1992,5.2079,5.2103,5.2157,5.2181,5.2168,5.2284,5.2263,5.2228,5.2165,5.2279,5.2323,5.2341,5.21,5.2098,5.2096,5.2095,0,0,5.1853,5.19,5.1922,5.1945,5.1985,5.2034,5.2106,5.216,5.2192,5.223,5.2288,5.2368,5.2334,5.2363,5.2352,5.2402,5.2513,5.236,5.236,5.2385,5.2639,5.2664,5.2686,5.2495,5.2498,5.2501,5.2635,0,5.1992,5.212,5.2112,5.2231,5.2289,5.2254,5.2317,5.2347,5.2353,5.2402,5.2408,5.2464,5.2417,5.2434,5.2482,5.249,5.2564,5.248,5.2546,5.2549,5.2537,5.2709,5.2736,5.2862,5.2653,5.2656,5.2658,0,5.2171,5.2215,5.234,5.2369,5.2394,5.245,5.2497,5.2546,5.2578,5.2579,5.2611,5.2591,5.2661,5.2598,5.2693,5.2637,5.2663,5.2671,5.2675,5.2679,5.2609,5.2715,5.2902,5.292,5.2685,5.2683,5.2681,0,5.2289,5.238,5.2466,5.2487,5.2524,5.2564,5.2581,5.261,5.2642,5.2682,5.2702,5.2751,5.2776,5.2813,5.2806,5.2761,5.2902,5.2839,5.2902,5.2903,5.2932,5.293,5.3124,5.2953,5.2953,5.2953,5.2952,0,5.2443,5.252,5.252,5.2573,5.2657,5.2647,5.273,5.2742,5.2767,5.282,5.2792,5.2842,5.2831,5.2879,5.2874,5.2952,5.2964,5.2965,5.2962,5.2967,5.2966,5.2982,5.2972,5.2958,5.2956,5.2955,5.2955,0,5.2589,5.2593,5.2684,5.2711,5.272,5.2781,5.2803,5.2851,5.2855,5.2922,5.2937,5.2943,5.2998,5.2996,5.3058,5.3055,5.315,5.3138,5.3139,5.3136,5.3199,5.3192,5.3408,5.3434,5.3249,5.325,5.3252,0,5.2687,5.2745,5.2779,5.2813,5.2833,5.2888,5.292,5.2912,5.2946,5.2986,5.3029,5.3083,5.3125,5.3214,5.3223,5.327,5.3257,5.333,5.3264,5.3266,5.3255,5.3251,5.3256,5.3342,5.3344,5.3346,5.3347,0,5.2858,5.2857,5.2906,5.2955,5.2995,5.3033,5.3067,5.3096,5.309,5.313,5.3187,5.322,5.3284,5.3336,5.338,5.3395,5.337,5.3368,5.3385,5.3388,5.3386,5.3386,5.3172,5.3363,5.3361,5.336,5.3359,5.3358,5.2981,5.3031,5.3062,5.3117,5.3142,5.3175,5.3221,5.3231,5.3279,5.3331,5.3323,5.3386,5.3414,5.3471,5.349,5.3538,5.3512,5.3537,5.3542,5.3548,5.3554,5.338,5.3546,5.3546,5.3545,5.3545,5.3545,0,5.3149,5.3167,5.3218,5.3268,5.331,5.3284,5.3321,5.3357,5.3413,5.3443,5.3484,5.3548,5.3598,5.3611,5.3658,5.3694,5.3683,5.3706,5.3702,5.3706,5.3576,5.3556,5.3714,5.3714,5.3714,5.3714,5.3714,5.3714,5.3241,5.3323,5.3325,5.3418,5.3435,5.3497,5.352,5.3549,5.3572,5.3645,5.3687,5.3695,5.3717,5.3765,5.3809,5.3811,5.3829,5.3857,5.3854,5.3732,5.3715,5.3699,5.3679,5.3861,5.3861,5.3979,5.398,5.3981]}]]